Time,TemperatureF,DewpointF,PressureIn,WindDirection,WindDirectionDegrees,WindSpeedMPH,WindSpeedGustMPH,Humidity,HourlyPrecipIn,Conditions,Clouds,dailyrainin,SoftwareType,DateUTC
2013-05-31 00:01:00,73.7,72.2,29.61,South,174,5.0,6.0,95,0.00,,,0.00,LWC2 V0.39 B123,2013-05-31 06:01:00,
2013-05-31 00:06:00,73.8,72.0,29.61,SW,232,3.0,8.0,94,0.00,,,0.00,LWC2 V0.39 B123,2013-05-31 06:06:00,
2013-05-31 00:11:00,74.0,72.2,29.60,South,181,4.0,7.0,94,0.00,,,0.00,LWC2 V0.39 B123,2013-05-31 06:11:00,
2013-05-31 00:16:00,74.1,72.3,29.61,SSE,165,1.0,6.0,94,0.00,,,0.00,LWC2 V0.39 B123,2013-05-31 06:16:00,
2013-05-31 00:21:00,74.1,71.9,29.60,SE,125,1.0,3.0,93,0.00,,,0.00,LWC2 V0.39 B123,2013-05-31 06:21:00,
2013-05-31 00:26:00,74.0,71.8,29.60,SSE,148,3.0,5.0,93,0.00,,,0.00,LWC2 V0.39 B123,2013-05-31 06:26:00,
2013-05-31 00:31:00,73.9,71.7,29.60,SE,145,3.0,6.0,93,0.00,,,0.00,LWC2 V0.39 B123,2013-05-31 06:31:00,
2013-05-31 00:36:00,73.9,72.1,29.60,SE,134,2.0,4.0,94,0.00,,,0.00,LWC2 V0.39 B123,2013-05-31 06:36:00,
2013-05-31 00:41:00,73.9,72.1,29.60,ESE,120,3.0,4.0,94,0.00,,,0.00,LWC2 V0.39 B123,2013-05-31 06:41:00,
2013-05-31 00:46:00,73.8,72.0,29.60,SE,136,4.0,4.0,94,0.00,,,0.00,LWC2 V0.39 B123,2013-05-31 06:46:00,
2013-05-31 00:51:00,73.8,72.0,29.60,ESE,120,4.0,5.0,94,0.00,,,0.00,LWC2 V0.39 B123,2013-05-31 06:51:00,
2013-05-31 00:56:00,73.7,71.9,29.60,South,172,3.0,5.0,94,0.00,,,0.00,LWC2 V0.39 B123,2013-05-31 06:56:00,
2013-05-31 01:01:00,73.7,71.9,29.60,South,173,3.0,5.0,94,0.00,,,0.00,LWC2 V0.39 B123,2013-05-31 07:01:00,
2013-05-31 01:06:00,73.7,71.9,29.59,SSE,160,4.0,8.0,94,0.00,,,0.00,LWC2 V0.39 B123,2013-05-31 07:06:00,
2013-05-31 01:11:00,73.9,72.1,29.59,SSE,167,3.0,6.0,94,0.00,,,0.00,LWC2 V0.39 B123,2013-05-31 07:11:00,
2013-05-31 01:16:00,74.0,72.2,29.59,SSE,150,4.0,8.0,94,0.00,,,0.00,LWC2 V0.39 B123,2013-05-31 07:16:00,
2013-05-31 01:21:00,74.2,72.4,29.59,South,183,10.0,10.0,94,0.00,,,0.00,LWC2 V0.39 B123,2013-05-31 07:21:00,
2013-05-31 01:26:00,74.3,72.5,29.59,SE,142,3.0,6.0,94,0.00,,,0.00,LWC2 V0.39 B123,2013-05-31 07:26:00,
2013-05-31 01:31:00,74.5,72.3,29.59,South,169,3.0,6.0,93,0.00,,,0.00,LWC2 V0.39 B123,2013-05-31 07:31:00,
2013-05-31 01:36:00,74.6,72.4,29.60,SSE,160,4.0,7.0,93,0.00,,,0.00,LWC2 V0.39 B123,2013-05-31 07:36:00,
2013-05-31 01:41:00,74.9,72.7,29.60,SE,129,1.0,3.0,93,0.00,,,0.00,LWC2 V0.39 B123,2013-05-31 07:41:00,
2013-05-31 01:46:00,75.1,72.6,29.59,SE,137,4.0,7.0,92,0.00,,,0.00,LWC2 V0.39 B123,2013-05-31 07:46:00,
2013-05-31 01:51:00,75.6,72.8,29.60,ESE,118,5.0,6.0,91,0.00,,,0.00,LWC2 V0.39 B123,2013-05-31 07:51:00,
2013-05-31 01:56:00,75.9,72.7,29.59,West,280,2.0,8.0,90,0.00,,,0.01,LWC2 V0.39 B123,2013-05-31 07:56:00,
2013-05-31 02:01:00,76.0,72.8,29.59,SSW,201,5.0,7.0,90,0.00,,,0.01,LWC2 V0.39 B123,2013-05-31 08:01:00,
2013-05-31 02:06:00,76.1,72.9,29.59,SSW,197,5.0,13.0,90,0.00,,,0.01,LWC2 V0.39 B123,2013-05-31 08:06:00,
2013-05-31 02:11:00,76.3,72.8,29.59,South,191,3.0,12.0,89,0.00,,,0.01,LWC2 V0.39 B123,2013-05-31 08:11:00,
2013-05-31 02:16:00,76.2,72.7,29.59,South,177,6.0,8.0,89,0.00,,,0.01,LWC2 V0.39 B123,2013-05-31 08:16:00,
2013-05-31 02:21:00,76.4,72.9,29.59,SW,222,5.0,12.0,89,0.00,,,0.01,LWC2 V0.39 B123,2013-05-31 08:21:00,
2013-05-31 02:26:00,76.5,73.0,29.59,SSE,156,9.0,10.0,89,0.00,,,0.01,LWC2 V0.39 B123,2013-05-31 08:26:00,
2013-05-31 02:31:00,76.5,72.7,29.60,SW,219,6.0,9.0,88,0.00,,,0.01,LWC2 V0.39 B123,2013-05-31 08:31:00,
2013-05-31 02:36:00,76.5,72.7,29.60,West,274,4.0,9.0,88,0.00,,,0.01,LWC2 V0.39 B123,2013-05-31 08:36:00,
2013-05-31 02:41:00,76.6,72.8,29.59,SSE,160,6.0,14.0,88,0.00,,,0.01,LWC2 V0.39 B123,2013-05-31 08:41:00,
2013-05-31 02:46:00,76.6,72.8,29.59,South,188,6.0,10.0,88,0.00,,,0.01,LWC2 V0.39 B123,2013-05-31 08:46:00,
2013-05-31 02:51:00,76.6,72.8,29.59,SW,228,8.0,13.0,88,0.00,,,0.01,LWC2 V0.39 B123,2013-05-31 08:51:00,
2013-05-31 02:57:00,76.7,72.9,29.60,WSW,237,7.0,23.0,88,0.00,,,0.01,LWC2 V0.39 B123,2013-05-31 08:57:00,
2013-05-31 03:02:00,76.7,72.9,29.60,WSW,250,7.0,10.0,88,0.00,,,0.01,LWC2 V0.39 B123,2013-05-31 09:02:00,
2013-05-31 03:07:00,76.7,72.9,29.60,SSE,163,3.0,12.0,88,0.00,,,0.01,LWC2 V0.39 B123,2013-05-31 09:07:00,
2013-05-31 03:12:00,76.6,72.8,29.60,SE,145,4.0,5.0,88,0.00,,,0.01,LWC2 V0.39 B123,2013-05-31 09:12:00,
2013-05-31 03:17:00,76.7,72.9,29.60,South,191,6.0,13.0,88,0.00,,,0.01,LWC2 V0.39 B123,2013-05-31 09:17:00,
2013-05-31 03:22:00,76.8,73.0,29.60,SW,231,9.0,13.0,88,0.00,,,0.01,LWC2 V0.39 B123,2013-05-31 09:22:00,
2013-05-31 03:27:00,76.7,72.9,29.60,SSW,203,6.0,14.0,88,0.00,,,0.01,LWC2 V0.39 B123,2013-05-31 09:27:00,
2013-05-31 03:32:00,76.8,73.0,29.60,WSW,251,6.0,12.0,88,0.00,,,0.01,LWC2 V0.39 B123,2013-05-31 09:32:00,
2013-05-31 03:37:00,76.9,72.7,29.60,SSE,168,4.0,14.0,87,0.00,,,0.01,LWC2 V0.39 B123,2013-05-31 09:37:00,
2013-05-31 03:42:00,77.0,72.8,29.60,South,184,7.0,17.0,87,0.00,,,0.01,LWC2 V0.39 B123,2013-05-31 09:42:00,
2013-05-31 03:47:00,77.1,72.9,29.60,SW,232,9.0,13.0,87,0.00,,,0.01,LWC2 V0.39 B123,2013-05-31 09:47:00,
2013-05-31 03:52:00,77.2,73.0,29.60,SW,224,7.0,23.0,87,0.00,,,0.01,LWC2 V0.39 B123,2013-05-31 09:52:00,
2013-05-31 03:57:00,77.3,73.1,29.60,SSW,198,9.0,18.0,87,0.00,,,0.01,LWC2 V0.39 B123,2013-05-31 09:57:00,
2013-05-31 04:02:00,77.3,72.8,29.60,SSW,195,6.0,19.0,86,0.00,,,0.01,LWC2 V0.39 B123,2013-05-31 10:02:00,
2013-05-31 04:07:00,77.4,72.9,29.60,SSW,205,6.0,13.0,86,0.00,,,0.01,LWC2 V0.39 B123,2013-05-31 10:07:00,
2013-05-31 04:12:00,77.4,72.9,29.60,SW,221,7.0,18.0,86,0.00,,,0.01,LWC2 V0.39 B123,2013-05-31 10:12:00,
2013-05-31 04:17:00,77.4,72.9,29.59,SSW,210,5.0,13.0,86,0.00,,,0.01,LWC2 V0.39 B123,2013-05-31 10:17:00,
2013-05-31 04:22:00,77.4,72.9,29.59,SSE,158,6.0,12.0,86,0.00,,,0.01,LWC2 V0.39 B123,2013-05-31 10:22:00,
2013-05-31 04:27:00,77.4,72.9,29.60,SSE,162,4.0,17.0,86,0.00,,,0.01,LWC2 V0.39 B123,2013-05-31 10:27:00,
2013-05-31 04:32:00,77.6,72.7,29.60,SE,136,4.0,14.0,85,0.00,,,0.01,LWC2 V0.39 B123,2013-05-31 10:32:00,
2013-05-31 04:37:00,77.6,73.1,29.61,SSW,195,7.0,16.0,86,0.00,,,0.01,LWC2 V0.39 B123,2013-05-31 10:37:00,
2013-05-31 04:42:00,77.6,73.1,29.62,South,169,8.0,17.0,86,0.00,,,0.01,LWC2 V0.39 B123,2013-05-31 10:42:00,
2013-05-31 04:47:00,77.6,73.1,29.62,SSW,200,6.0,14.0,86,0.00,,,0.01,LWC2 V0.39 B123,2013-05-31 10:47:00,
2013-05-31 04:52:00,77.6,73.1,29.62,WSW,239,10.0,10.0,86,0.00,,,0.01,LWC2 V0.39 B123,2013-05-31 10:52:00,
2013-05-31 04:57:00,77.6,73.1,29.62,SSW,197,8.0,12.0,86,0.00,,,0.01,LWC2 V0.39 B123,2013-05-31 10:57:00,
2013-05-31 05:02:00,77.5,73.0,29.61,SSE,160,6.0,14.0,86,0.00,,,0.01,LWC2 V0.39 B123,2013-05-31 11:02:00,
2013-05-31 05:07:00,77.5,73.0,29.62,SSW,200,6.0,18.0,86,0.00,,,0.01,LWC2 V0.39 B123,2013-05-31 11:07:00,
2013-05-31 05:12:00,77.4,72.9,29.63,SW,215,6.0,12.0,86,0.00,,,0.01,LWC2 V0.39 B123,2013-05-31 11:12:00,
2013-05-31 05:17:00,77.4,72.9,29.63,South,178,7.0,14.0,86,0.00,,,0.01,LWC2 V0.39 B123,2013-05-31 11:17:00,
2013-05-31 05:22:00,77.3,72.8,29.63,SW,235,5.0,7.0,86,0.00,,,0.01,LWC2 V0.39 B123,2013-05-31 11:22:00,
2013-05-31 05:27:00,77.3,72.8,29.63,SSW,200,11.0,12.0,86,0.00,,,0.01,LWC2 V0.39 B123,2013-05-31 11:27:00,
2013-05-31 05:32:00,77.4,72.9,29.63,SSE,147,5.0,12.0,86,0.00,,,0.01,LWC2 V0.39 B123,2013-05-31 11:32:00,
2013-05-31 05:37:00,77.3,72.8,29.63,SSW,197,6.0,12.0,86,0.00,,,0.01,LWC2 V0.39 B123,2013-05-31 11:37:00,
2013-05-31 05:42:00,77.3,72.8,29.63,SW,219,7.0,9.0,86,0.00,,,0.01,LWC2 V0.39 B123,2013-05-31 11:42:00,
2013-05-31 05:47:00,77.3,72.8,29.63,West,274,6.0,7.0,86,0.00,,,0.01,LWC2 V0.39 B123,2013-05-31 11:47:00,
2013-05-31 05:52:00,77.2,72.7,29.64,SSW,211,4.0,4.0,86,0.00,,,0.01,LWC2 V0.39 B123,2013-05-31 11:52:00,
2013-05-31 05:57:00,77.3,72.8,29.64,WSW,257,5.0,9.0,86,0.00,,,0.01,LWC2 V0.39 B123,2013-05-31 11:57:00,
2013-05-31 06:02:00,77.3,72.8,29.64,South,173,4.0,11.0,86,0.00,,,0.01,LWC2 V0.39 B123,2013-05-31 12:02:00,
2013-05-31 06:07:00,77.3,72.8,29.64,WSW,238,8.0,10.0,86,0.00,,,0.01,LWC2 V0.39 B123,2013-05-31 12:07:00,
2013-05-31 06:12:00,77.4,72.9,29.64,SW,236,8.0,8.0,86,0.00,,,0.01,LWC2 V0.39 B123,2013-05-31 12:12:00,
2013-05-31 06:17:00,77.4,72.9,29.64,South,191,5.0,12.0,86,0.00,,,0.01,LWC2 V0.39 B123,2013-05-31 12:17:00,
2013-05-31 06:22:00,77.5,73.0,29.64,SSW,204,10.0,10.0,86,0.00,,,0.01,LWC2 V0.39 B123,2013-05-31 12:22:00,
2013-05-31 06:27:00,77.4,72.9,29.65,WSW,256,2.0,5.0,86,0.00,,,0.01,LWC2 V0.39 B123,2013-05-31 12:27:00,
2013-05-31 06:32:00,77.4,72.9,29.66,SSW,209,5.0,5.0,86,0.00,,,0.01,LWC2 V0.39 B123,2013-05-31 12:32:00,
2013-05-31 06:37:00,77.4,72.9,29.66,WNW,300,4.0,12.0,86,0.00,,,0.01,LWC2 V0.39 B123,2013-05-31 12:37:00,
2013-05-31 06:42:00,77.3,72.8,29.66,South,188,3.0,7.0,86,0.00,,,0.01,LWC2 V0.39 B123,2013-05-31 12:42:00,
2013-05-31 06:47:00,77.4,72.9,29.66,West,263,4.0,6.0,86,0.00,,,0.01,LWC2 V0.39 B123,2013-05-31 12:47:00,
2013-05-31 06:52:00,77.4,72.9,29.67,SSW,196,4.0,5.0,86,0.00,,,0.01,LWC2 V0.39 B123,2013-05-31 12:52:00,
2013-05-31 06:57:00,77.3,72.8,29.67,SSW,202,5.0,11.0,86,0.00,,,0.01,LWC2 V0.39 B123,2013-05-31 12:57:00,
2013-05-31 07:02:00,77.3,72.8,29.67,West,263,1.0,7.0,86,0.00,,,0.01,LWC2 V0.39 B123,2013-05-31 13:02:00,
2013-05-31 07:07:00,77.2,73.0,29.67,South,187,4.0,10.0,87,0.00,,,0.01,LWC2 V0.39 B123,2013-05-31 13:07:00,
2013-05-31 07:12:00,77.2,72.7,29.68,South,191,2.0,11.0,86,0.00,,,0.01,LWC2 V0.39 B123,2013-05-31 13:12:00,
2013-05-31 07:17:00,77.3,72.8,29.68,NNW,336,2.0,10.0,86,0.00,,,0.01,LWC2 V0.39 B123,2013-05-31 13:17:00,
2013-05-31 07:22:00,77.4,72.9,29.68,SW,232,7.0,8.0,86,0.00,,,0.01,LWC2 V0.39 B123,2013-05-31 13:22:00,
2013-05-31 07:27:00,77.5,73.0,29.68,SW,228,5.0,7.0,86,0.00,,,0.01,LWC2 V0.39 B123,2013-05-31 13:27:00,
2013-05-31 07:32:00,77.7,73.2,29.68,South,183,6.0,11.0,86,0.00,,,0.01,LWC2 V0.39 B123,2013-05-31 13:32:00,
2013-05-31 07:37:00,77.9,73.4,29.68,SW,217,5.0,12.0,86,0.00,,,0.01,LWC2 V0.39 B123,2013-05-31 13:37:00,
2013-05-31 07:42:00,78.2,73.0,29.69,South,177,4.0,14.0,84,0.00,,,0.01,LWC2 V0.39 B123,2013-05-31 13:42:00,
2013-05-31 07:47:00,78.5,73.6,29.69,SSW,203,3.0,5.0,85,0.00,,,0.01,LWC2 V0.39 B123,2013-05-31 13:47:00,
2013-05-31 07:52:00,78.6,73.7,29.69,West,273,4.0,7.0,85,0.00,,,0.01,LWC2 V0.39 B123,2013-05-31 13:52:00,
2013-05-31 07:57:00,78.8,73.9,29.69,SSE,156,2.0,7.0,85,0.00,,,0.01,LWC2 V0.39 B123,2013-05-31 13:57:00,
2013-05-31 08:02:00,79.4,73.8,29.69,SW,228,3.0,9.0,83,0.00,,,0.01,LWC2 V0.39 B123,2013-05-31 14:02:00,
2013-05-31 08:07:00,79.9,74.3,29.69,SSE,156,0.0,7.0,83,0.00,,,0.01,LWC2 V0.39 B123,2013-05-31 14:07:00,
2013-05-31 08:12:00,80.1,73.7,29.69,WSW,258,3.0,13.0,81,0.00,,,0.01,LWC2 V0.39 B123,2013-05-31 14:12:00,
2013-05-31 08:17:00,80.4,74.0,29.69,South,170,3.0,9.0,81,0.00,,,0.01,LWC2 V0.39 B123,2013-05-31 14:17:00,
2013-05-31 08:22:00,80.9,74.9,29.69,SW,236,7.0,7.0,82,0.00,,,0.01,LWC2 V0.39 B123,2013-05-31 14:22:00,
2013-05-31 08:27:00,81.4,74.6,29.69,North,3,2.0,6.0,80,0.00,,,0.01,LWC2 V0.39 B123,2013-05-31 14:27:00,
2013-05-31 08:32:00,81.6,74.1,29.69,SSE,166,4.0,11.0,78,0.00,,,0.01,LWC2 V0.39 B123,2013-05-31 14:32:00,
2013-05-31 08:37:00,81.6,74.4,29.68,SW,218,8.0,10.0,79,0.00,,,0.01,LWC2 V0.39 B123,2013-05-31 14:37:00,
2013-05-31 08:42:00,81.9,74.7,29.68,SW,222,6.0,7.0,79,0.00,,,0.01,LWC2 V0.39 B123,2013-05-31 14:42:00,
2013-05-31 08:47:00,82.3,74.3,29.68,South,181,3.0,11.0,77,0.00,,,0.01,LWC2 V0.39 B123,2013-05-31 14:47:00,
2013-05-31 08:52:00,82.4,75.2,29.68,SSW,196,5.0,10.0,79,0.00,,,0.01,LWC2 V0.39 B123,2013-05-31 14:52:00,
2013-05-31 08:57:00,82.5,74.9,29.68,SE,138,3.0,9.0,78,0.00,,,0.01,LWC2 V0.39 B123,2013-05-31 14:57:00,
2013-05-31 09:02:00,82.7,74.7,29.68,WSW,250,3.0,10.0,77,0.00,,,0.01,LWC2 V0.39 B123,2013-05-31 15:02:00,
2013-05-31 09:07:00,82.9,74.9,29.68,SSW,210,3.0,9.0,77,0.00,,,0.01,LWC2 V0.39 B123,2013-05-31 15:07:00,
2013-05-31 09:12:00,83.0,75.0,29.68,WSW,252,6.0,11.0,77,0.00,,,0.01,LWC2 V0.39 B123,2013-05-31 15:12:00,
2013-05-31 09:17:00,83.0,75.0,29.68,WSW,249,1.0,5.0,77,0.00,,,0.01,LWC2 V0.39 B123,2013-05-31 15:17:00,
2013-05-31 09:22:00,83.2,74.8,29.68,WSW,250,11.0,11.0,76,0.00,,,0.01,LWC2 V0.39 B123,2013-05-31 15:22:00,
2013-05-31 09:27:00,83.0,74.6,29.68,NNW,342,4.0,11.0,76,0.00,,,0.01,LWC2 V0.39 B123,2013-05-31 15:27:00,
2013-05-31 09:32:00,83.2,74.4,29.68,NNE,32,4.0,16.0,75,0.00,,,0.01,LWC2 V0.39 B123,2013-05-31 15:32:00,
2013-05-31 09:37:00,83.3,74.9,29.68,WSW,239,4.0,7.0,76,0.00,,,0.01,LWC2 V0.39 B123,2013-05-31 15:37:00,
2013-05-31 09:42:00,83.6,75.2,29.68,SSW,205,6.0,14.0,76,0.00,,,0.01,LWC2 V0.39 B123,2013-05-31 15:42:00,
2013-05-31 09:47:00,83.2,74.4,29.68,SW,225,10.0,12.0,75,0.00,,,0.01,LWC2 V0.39 B123,2013-05-31 15:47:00,
2013-05-31 09:52:00,83.1,75.1,29.68,WSW,246,4.0,8.0,77,0.00,,,0.01,LWC2 V0.39 B123,2013-05-31 15:52:00,
2013-05-31 09:57:00,83.5,75.5,29.68,SSW,204,11.0,11.0,77,0.00,,,0.01,LWC2 V0.39 B123,2013-05-31 15:57:00,
2013-05-31 10:02:00,83.8,75.0,29.68,WSW,246,4.0,14.0,75,0.00,,,0.01,LWC2 V0.39 B123,2013-05-31 16:02:00,
2013-05-31 10:07:00,83.7,74.9,29.68,SW,228,7.0,18.0,75,0.00,,,0.01,LWC2 V0.39 B123,2013-05-31 16:07:00,
2013-05-31 10:12:00,83.3,74.9,29.69,SSW,201,9.0,11.0,76,0.00,,,0.01,LWC2 V0.39 B123,2013-05-31 16:12:00,
2013-05-31 10:17:00,83.1,74.7,29.68,NNW,331,2.0,15.0,76,0.00,,,0.01,LWC2 V0.39 B123,2013-05-31 16:17:00,
2013-05-31 10:22:00,83.7,75.7,29.69,SSW,200,5.0,6.0,77,0.00,,,0.01,LWC2 V0.39 B123,2013-05-31 16:22:00,
2013-05-31 10:27:00,83.7,75.3,29.69,South,173,2.0,7.0,76,0.00,,,0.01,LWC2 V0.39 B123,2013-05-31 16:27:00,
2013-05-31 10:32:00,83.5,75.1,29.69,WSW,257,12.0,12.0,76,0.00,,,0.01,LWC2 V0.39 B123,2013-05-31 16:32:00,
2013-05-31 10:37:00,83.7,76.1,29.69,WSW,238,4.0,6.0,78,0.00,,,0.01,LWC2 V0.39 B123,2013-05-31 16:37:00,
2013-05-31 10:42:00,83.9,75.1,29.69,WSW,243,2.0,8.0,75,0.00,,,0.01,LWC2 V0.39 B123,2013-05-31 16:42:00,
2013-05-31 10:47:00,84.1,75.3,29.69,SSE,160,3.0,6.0,75,0.00,,,0.01,LWC2 V0.39 B123,2013-05-31 16:47:00,
2013-05-31 10:52:00,84.3,75.5,29.69,SSW,201,1.0,8.0,75,0.00,,,0.01,LWC2 V0.39 B123,2013-05-31 16:52:00,
2013-05-31 10:57:00,84.5,75.7,29.69,SW,235,3.0,9.0,75,0.00,,,0.01,LWC2 V0.39 B123,2013-05-31 16:57:00,
2013-05-31 11:02:00,84.7,75.5,29.69,WNW,298,2.0,6.0,74,0.00,,,0.01,LWC2 V0.39 B123,2013-05-31 17:02:00,
2013-05-31 11:07:00,85.2,75.9,29.69,South,172,4.0,9.0,74,0.00,,,0.01,LWC2 V0.39 B123,2013-05-31 17:07:00,
2013-05-31 11:12:00,85.6,75.9,29.69,SW,217,3.0,6.0,73,0.00,,,0.01,LWC2 V0.39 B123,2013-05-31 17:12:00,
2013-05-31 11:17:00,85.6,76.3,29.69,NW,320,1.0,6.0,74,0.00,,,0.01,LWC2 V0.39 B123,2013-05-31 17:17:00,
2013-05-31 11:22:00,85.9,75.8,29.69,South,191,5.0,11.0,72,0.00,,,0.01,LWC2 V0.39 B123,2013-05-31 17:22:00,
2013-05-31 11:27:00,86.0,76.3,29.69,WNW,291,2.0,6.0,73,0.00,,,0.01,LWC2 V0.39 B123,2013-05-31 17:27:00,
2013-05-31 11:32:00,86.0,75.5,29.69,SW,226,11.0,11.0,71,0.00,,,0.01,LWC2 V0.39 B123,2013-05-31 17:32:00,
2013-05-31 11:37:00,85.7,76.0,29.69,ENE,70,3.0,7.0,73,0.00,,,0.01,LWC2 V0.39 B123,2013-05-31 17:37:00,
2013-05-31 11:42:00,86.0,76.3,29.68,South,186,1.0,7.0,73,0.00,,,0.01,LWC2 V0.39 B123,2013-05-31 17:42:00,
2013-05-31 11:47:00,86.1,76.0,29.68,South,169,7.0,10.0,72,0.00,,,0.01,LWC2 V0.39 B123,2013-05-31 17:47:00,
2013-05-31 11:52:00,85.2,74.7,29.68,South,179,4.0,8.0,71,0.00,,,0.01,LWC2 V0.39 B123,2013-05-31 17:52:00,
2013-05-31 11:57:00,84.3,75.1,29.68,West,269,1.0,7.0,74,0.00,,,0.01,LWC2 V0.39 B123,2013-05-31 17:57:00,
2013-05-31 12:02:00,84.1,75.7,29.68,SSW,203,6.0,6.0,76,0.00,,,0.01,LWC2 V0.39 B123,2013-05-31 18:02:00,
2013-05-31 12:07:00,84.4,75.2,29.68,SSW,212,11.0,14.0,74,0.00,,,0.01,LWC2 V0.39 B123,2013-05-31 18:07:00,
2013-05-31 12:12:00,84.7,75.9,29.68,WSW,239,11.0,11.0,75,0.00,,,0.01,LWC2 V0.39 B123,2013-05-31 18:12:00,
2013-05-31 12:17:00,85.4,75.7,29.68,SSE,166,5.0,11.0,73,0.00,,,0.01,LWC2 V0.39 B123,2013-05-31 18:17:00,
2013-05-31 12:22:00,85.9,76.6,29.68,SE,127,6.0,7.0,74,0.00,,,0.01,LWC2 V0.39 B123,2013-05-31 18:22:00,
2013-05-31 12:27:00,85.7,77.2,29.68,WNW,300,5.0,7.0,76,0.00,,,0.01,LWC2 V0.39 B123,2013-05-31 18:27:00,
2013-05-31 12:32:00,85.3,75.6,29.67,WNW,293,2.0,8.0,73,0.00,,,0.01,LWC2 V0.39 B123,2013-05-31 18:32:00,
2013-05-31 12:37:00,84.7,75.9,29.68,South,176,3.0,11.0,75,0.00,,,0.01,LWC2 V0.39 B123,2013-05-31 18:37:00,
2013-05-31 12:42:00,84.9,76.1,29.67,West,262,4.0,12.0,75,0.00,,,0.01,LWC2 V0.39 B123,2013-05-31 18:42:00,
2013-05-31 12:47:00,84.9,75.7,29.67,SSW,200,7.0,12.0,74,0.00,,,0.01,LWC2 V0.39 B123,2013-05-31 18:47:00,
2013-05-31 12:52:00,85.6,75.9,29.67,SSW,194,5.0,10.0,73,0.00,,,0.01,LWC2 V0.39 B123,2013-05-31 18:52:00,
2013-05-31 12:57:00,85.4,75.7,29.67,WSW,238,8.0,14.0,73,0.00,,,0.01,LWC2 V0.39 B123,2013-05-31 18:57:00,
2013-05-31 13:02:00,85.3,76.0,29.67,South,179,8.0,10.0,74,0.00,,,0.01,LWC2 V0.39 B123,2013-05-31 19:02:00,
2013-05-31 13:07:00,85.8,76.9,29.66,SE,146,0.0,5.0,75,0.00,,,0.01,LWC2 V0.39 B123,2013-05-31 19:07:00,
2013-05-31 13:12:00,85.9,75.8,29.66,SSW,204,6.0,9.0,72,0.00,,,0.01,LWC2 V0.39 B123,2013-05-31 19:12:00,
2013-05-31 13:17:00,86.3,75.8,29.66,SW,235,6.0,6.0,71,0.00,,,0.01,LWC2 V0.39 B123,2013-05-31 19:17:00,
2013-05-31 13:22:00,86.6,76.5,29.66,South,184,3.0,12.0,72,0.00,,,0.01,LWC2 V0.39 B123,2013-05-31 19:22:00,
2013-05-31 13:27:00,86.9,76.3,29.66,SSW,200,9.0,9.0,71,0.00,,,0.01,LWC2 V0.39 B123,2013-05-31 19:27:00,
2013-05-31 13:32:00,86.6,76.0,29.66,SW,221,4.0,10.0,71,0.00,,,0.01,LWC2 V0.39 B123,2013-05-31 19:32:00,
2013-05-31 13:37:00,87.1,76.1,29.66,South,176,3.0,4.0,70,0.00,,,0.01,LWC2 V0.39 B123,2013-05-31 19:37:00,
2013-05-31 13:42:00,86.6,75.2,29.66,WSW,242,7.0,13.0,69,0.00,,,0.01,LWC2 V0.39 B123,2013-05-31 19:42:00,
2013-05-31 13:47:00,86.0,75.5,29.66,WNW,301,5.0,7.0,71,0.00,,,0.01,LWC2 V0.39 B123,2013-05-31 19:47:00,
2013-05-31 13:52:00,85.9,75.4,29.66,WSW,239,3.0,12.0,71,0.00,,,0.01,LWC2 V0.39 B123,2013-05-31 19:52:00,
2013-05-31 13:57:00,85.6,75.1,29.66,SSE,153,2.0,9.0,71,0.00,,,0.01,LWC2 V0.39 B123,2013-05-31 19:57:00,
2013-05-31 14:02:00,85.6,75.1,29.66,SSE,166,2.0,8.0,71,0.00,,,0.01,LWC2 V0.39 B123,2013-05-31 20:02:00,
2013-05-31 14:07:00,85.7,76.0,29.66,SSW,201,4.0,9.0,73,0.00,,,0.01,LWC2 V0.39 B123,2013-05-31 20:07:00,
2013-05-31 14:12:00,86.0,75.9,29.66,SW,229,8.0,9.0,72,0.00,,,0.01,LWC2 V0.39 B123,2013-05-31 20:12:00,
2013-05-31 14:17:00,85.6,75.9,29.66,West,264,1.0,6.0,73,0.00,,,0.01,LWC2 V0.39 B123,2013-05-31 20:17:00,
2013-05-31 14:22:00,85.6,76.7,29.66,South,176,2.0,7.0,75,0.00,,,0.01,LWC2 V0.39 B123,2013-05-31 20:22:00,
2013-05-31 14:27:00,86.5,76.4,29.66,WSW,240,6.0,9.0,72,0.00,,,0.01,LWC2 V0.39 B123,2013-05-31 20:27:00,
2013-05-31 14:32:00,86.3,75.8,29.66,SSE,167,5.0,8.0,71,0.00,,,0.01,LWC2 V0.39 B123,2013-05-31 20:32:00,
2013-05-31 14:37:00,86.4,76.7,29.66,SW,231,5.0,6.0,73,0.00,,,0.01,LWC2 V0.39 B123,2013-05-31 20:37:00,
2013-05-31 14:42:00,86.4,77.5,29.65,SE,136,4.0,6.0,75,0.00,,,0.01,LWC2 V0.39 B123,2013-05-31 20:42:00,
2013-05-31 14:47:00,86.2,76.9,29.65,SSW,193,6.0,6.0,74,0.00,,,0.01,LWC2 V0.39 B123,2013-05-31 20:47:00,
2013-05-31 14:52:00,86.4,76.7,29.65,SW,222,4.0,7.0,73,0.00,,,0.01,LWC2 V0.39 B123,2013-05-31 20:52:00,
2013-05-31 14:57:00,86.8,77.1,29.65,ESE,108,1.0,5.0,73,0.00,,,0.01,LWC2 V0.39 B123,2013-05-31 20:57:00,
2013-05-31 15:02:00,87.3,77.6,29.64,South,187,2.0,9.0,73,0.00,,,0.01,LWC2 V0.39 B123,2013-05-31 21:02:00,
2013-05-31 15:07:00,87.3,77.6,29.64,WSW,238,6.0,7.0,73,0.00,,,0.01,LWC2 V0.39 B123,2013-05-31 21:07:00,
2013-05-31 15:12:00,87.2,76.2,29.64,South,169,3.0,8.0,70,0.00,,,0.01,LWC2 V0.39 B123,2013-05-31 21:12:00,
2013-05-31 15:17:00,86.5,76.4,29.64,South,191,5.0,11.0,72,0.00,,,0.01,LWC2 V0.39 B123,2013-05-31 21:17:00,
2013-05-31 15:22:00,85.9,75.8,29.64,SW,233,6.0,8.0,72,0.00,,,0.01,LWC2 V0.39 B123,2013-05-31 21:22:00,
2013-05-31 15:27:00,86.4,76.7,29.63,SW,229,2.0,8.0,73,0.00,,,0.01,LWC2 V0.39 B123,2013-05-31 21:27:00,
2013-05-31 15:32:00,86.4,76.3,29.63,SSW,212,3.0,6.0,72,0.00,,,0.01,LWC2 V0.39 B123,2013-05-31 21:32:00,
2013-05-31 15:37:00,86.2,76.9,29.63,SSE,167,4.0,5.0,74,0.00,,,0.01,LWC2 V0.39 B123,2013-05-31 21:37:00,
2013-05-31 15:42:00,86.6,76.9,29.63,SW,221,4.0,6.0,73,0.00,,,0.01,LWC2 V0.39 B123,2013-05-31 21:42:00,
2013-05-31 15:47:00,86.9,76.8,29.63,SE,144,8.0,9.0,72,0.00,,,0.01,LWC2 V0.39 B123,2013-05-31 21:47:00,
2013-05-31 15:52:00,87.0,77.3,29.62,SSW,193,8.0,11.0,73,0.00,,,0.01,LWC2 V0.39 B123,2013-05-31 21:52:00,
2013-05-31 15:57:00,87.1,76.1,29.62,SSW,195,6.0,10.0,70,0.00,,,0.01,LWC2 V0.39 B123,2013-05-31 21:57:00,
2013-05-31 16:02:00,87.3,76.7,29.61,WSW,245,5.0,10.0,71,0.00,,,0.01,LWC2 V0.39 B123,2013-05-31 22:02:00,
2013-05-31 16:07:00,87.4,75.9,29.61,WSW,253,11.0,11.0,69,0.00,,,0.01,LWC2 V0.39 B123,2013-05-31 22:07:00,
2013-05-31 16:12:00,87.2,76.2,29.60,South,190,3.0,10.0,70,0.00,,,0.01,LWC2 V0.39 B123,2013-05-31 22:12:00,
2013-05-31 16:17:00,87.2,75.8,29.59,SE,139,6.0,8.0,69,0.00,,,0.01,LWC2 V0.39 B123,2013-05-31 22:17:00,
2013-05-31 16:22:00,87.2,76.2,29.58,SSE,166,7.0,13.0,70,0.00,,,0.01,LWC2 V0.39 B123,2013-05-31 22:22:00,
2013-05-31 16:27:00,87.2,75.8,29.57,SW,229,8.0,11.0,69,0.00,,,0.01,LWC2 V0.39 B123,2013-05-31 22:27:00,
2013-05-31 16:32:00,87.3,75.9,29.55,SSE,167,7.0,9.0,69,0.00,,,0.01,LWC2 V0.39 B123,2013-05-31 22:32:00,
2013-05-31 16:37:00,87.0,76.0,29.53,SE,143,5.0,10.0,70,0.00,,,0.01,LWC2 V0.39 B123,2013-05-31 22:37:00,
2013-05-31 16:42:00,86.3,75.8,29.53,South,186,2.0,4.0,71,0.00,,,0.01,LWC2 V0.39 B123,2013-05-31 22:42:00,
2013-05-31 16:47:00,85.5,75.0,29.53,SSW,201,10.0,13.0,71,0.00,,,0.01,LWC2 V0.39 B123,2013-05-31 22:47:00,
2013-05-31 16:52:00,84.9,74.8,29.54,ESE,110,7.0,9.0,72,0.00,,,0.01,LWC2 V0.39 B123,2013-05-31 22:52:00,
2013-05-31 16:57:00,84.4,74.4,29.55,SW,227,5.0,11.0,72,0.00,,,0.01,LWC2 V0.39 B123,2013-05-31 22:57:00,
2013-05-31 17:02:00,84.1,74.1,29.55,WSW,242,5.0,7.0,72,0.00,,,0.01,LWC2 V0.39 B123,2013-05-31 23:02:00,
2013-05-31 17:07:00,83.8,74.2,29.55,West,276,7.0,8.0,73,0.00,,,0.01,LWC2 V0.39 B123,2013-05-31 23:07:00,
2013-05-31 17:12:00,83.4,74.2,29.53,SW,235,5.0,9.0,74,0.00,,,0.01,LWC2 V0.39 B123,2013-05-31 23:12:00,
2013-05-31 17:17:00,83.2,74.0,29.53,South,184,2.0,12.0,74,0.00,,,0.01,LWC2 V0.39 B123,2013-05-31 23:17:00,
2013-05-31 17:22:00,83.0,74.2,29.55,SE,143,7.0,8.0,75,0.00,,,0.01,LWC2 V0.39 B123,2013-05-31 23:22:00,
2013-05-31 17:27:00,83.1,74.3,29.56,South,181,3.0,12.0,75,0.00,,,0.01,LWC2 V0.39 B123,2013-05-31 23:27:00,
2013-05-31 17:32:00,83.0,74.6,29.57,SSW,196,4.0,10.0,76,0.00,,,0.01,LWC2 V0.39 B123,2013-05-31 23:32:00,
2013-05-31 17:37:00,82.9,74.5,29.56,South,173,2.0,5.0,76,0.00,,,0.01,LWC2 V0.39 B123,2013-05-31 23:37:00,
2013-05-31 17:42:00,82.9,74.5,29.57,SW,223,4.0,5.0,76,0.00,,,0.01,LWC2 V0.39 B123,2013-05-31 23:42:00,
2013-05-31 17:47:00,82.7,74.3,29.58,SW,236,4.0,8.0,76,0.00,,,0.01,LWC2 V0.39 B123,2013-05-31 23:47:00,
2013-05-31 17:52:00,82.7,74.3,29.57,ESE,114,4.0,6.0,76,0.00,,,0.01,LWC2 V0.39 B123,2013-05-31 23:52:00,
2013-05-31 17:57:00,82.6,74.2,29.57,SSW,207,6.0,8.0,76,0.00,,,0.01,LWC2 V0.39 B123,2013-05-31 23:57:00,
2013-05-31 18:02:00,82.6,74.2,29.55,SSE,162,3.0,4.0,76,0.00,,,0.01,LWC2 V0.39 B123,2013-06-01 00:02:00,
2013-05-31 18:07:00,82.3,74.3,29.53,SE,126,4.0,5.0,77,0.00,,,0.01,LWC2 V0.39 B123,2013-06-01 00:07:00,
2013-05-31 18:12:00,81.9,74.0,29.54,South,176,5.0,8.0,77,0.00,,,0.01,LWC2 V0.39 B123,2013-06-01 00:12:00,
2013-05-31 18:17:00,81.9,74.0,29.54,ESE,118,2.0,4.0,77,0.00,,,0.01,LWC2 V0.39 B123,2013-06-01 00:17:00,
2013-05-31 18:22:00,81.7,74.2,29.55,SE,127,2.0,3.0,78,0.00,,,0.01,LWC2 V0.39 B123,2013-06-01 00:22:00,
2013-05-31 18:27:00,81.5,74.3,29.59,NNE,18,2.0,2.0,79,0.00,,,0.01,LWC2 V0.39 B123,2013-06-01 00:27:00,
2013-05-31 18:32:00,81.6,74.1,29.61,SE,126,0.0,0.0,78,0.00,,,0.01,LWC2 V0.39 B123,2013-06-01 00:32:00,
2013-05-31 18:37:00,81.4,74.2,29.61,ENE,75,1.0,1.0,79,0.00,,,0.01,LWC2 V0.39 B123,2013-06-01 00:37:00,
2013-05-31 18:42:00,81.4,74.2,29.64,NW,314,2.0,3.0,79,0.00,,,0.01,LWC2 V0.39 B123,2013-06-01 00:42:00,
2013-05-31 18:47:00,81.2,74.4,29.66,NNW,331,1.0,1.0,80,0.00,,,0.01,LWC2 V0.39 B123,2013-06-01 00:47:00,
2013-05-31 18:52:00,80.8,74.4,29.64,SE,127,0.0,0.0,81,0.00,,,0.01,LWC2 V0.39 B123,2013-06-01 00:52:00,
2013-05-31 18:57:00,80.5,74.5,29.66,South,183,2.0,4.0,82,0.00,,,0.01,LWC2 V0.39 B123,2013-06-01 00:57:00,
2013-05-31 19:02:00,79.7,74.4,29.66,WNW,294,2.0,7.0,84,0.00,,,0.02,LWC2 V0.39 B123,2013-06-01 01:02:00,
2013-05-31 19:07:00,78.7,73.8,29.62,ESE,117,2.0,5.0,85,0.16,,,0.04,LWC2 V0.39 B123,2013-06-01 01:07:00,
2013-05-31 19:12:00,77.8,73.3,29.62,SSW,203,0.0,4.0,86,0.28,,,0.06,LWC2 V0.39 B123,2013-06-01 01:12:00,
2013-05-31 19:17:00,77.1,73.6,29.58,South,173,4.0,10.0,89,0.14,,,0.07,LWC2 V0.39 B123,2013-06-01 01:17:00,
2013-05-31 19:22:00,76.8,73.6,29.56,SE,143,8.0,12.0,90,0.22,,,0.09,LWC2 V0.39 B123,2013-06-01 01:22:00,
2013-05-31 19:27:00,76.7,73.5,29.57,NW,317,3.0,8.0,90,0.08,,,0.09,LWC2 V0.39 B123,2013-06-01 01:27:00,
2013-05-31 19:32:00,76.5,73.3,29.62,WNW,297,1.0,5.0,90,0.05,,,0.09,LWC2 V0.39 B123,2013-06-01 01:32:00,
2013-05-31 19:37:00,75.5,72.4,29.61,NE,49,0.0,1.0,90,0.00,,,0.09,LWC2 V0.39 B123,2013-06-01 01:37:00,
2013-05-31 19:42:00,75.1,72.6,29.61,ENE,73,0.0,1.0,92,0.00,,,0.09,LWC2 V0.39 B123,2013-06-01 01:42:00,
2013-05-31 19:47:00,74.9,72.7,29.61,NNE,21,2.0,2.0,93,0.00,,,0.09,LWC2 V0.39 B123,2013-06-01 01:47:00,
2013-05-31 19:52:00,74.7,72.5,29.60,NNE,19,5.0,6.0,93,0.00,,,0.09,LWC2 V0.39 B123,2013-06-01 01:52:00,
2013-05-31 19:57:00,74.8,72.6,29.61,NNE,22,7.0,7.0,93,0.00,,,0.10,LWC2 V0.39 B123,2013-06-01 01:57:00,
2013-05-31 20:02:00,74.8,72.6,29.63,NNW,347,3.0,7.0,93,0.00,,,0.10,LWC2 V0.39 B123,2013-06-01 02:02:00,
2013-05-31 20:07:00,74.9,72.7,29.62,NNE,25,1.0,3.0,93,0.00,,,0.10,LWC2 V0.39 B123,2013-06-01 02:07:00,
2013-05-31 20:12:00,75.2,73.0,29.62,ESE,110,1.0,1.0,93,0.00,,,0.10,LWC2 V0.39 B123,2013-06-01 02:12:00,
2013-05-31 20:17:00,75.6,73.4,29.63,WSW,239,0.0,7.0,93,0.00,,,0.10,LWC2 V0.39 B123,2013-06-01 02:17:00,
2013-05-31 20:22:00,76.0,73.5,29.64,NW,316,1.0,1.0,92,0.00,,,0.10,LWC2 V0.39 B123,2013-06-01 02:22:00,
2013-05-31 20:27:00,75.7,73.2,29.64,NNE,31,1.0,1.0,92,0.00,,,0.10,LWC2 V0.39 B123,2013-06-01 02:27:00,
2013-05-31 20:32:00,75.6,73.4,29.65,NE,34,2.0,3.0,93,0.00,,,0.10,LWC2 V0.39 B123,2013-06-01 02:32:00,
2013-05-31 20:37:00,75.5,73.3,29.63,ENE,60,1.0,1.0,93,0.00,,,0.10,LWC2 V0.39 B123,2013-06-01 02:37:00,
2013-05-31 20:42:00,75.3,73.1,29.63,NE,42,0.0,1.0,93,0.00,,,0.10,LWC2 V0.39 B123,2013-06-01 02:42:00,
2013-05-31 20:47:00,75.2,73.0,29.60,SSE,155,1.0,2.0,93,0.00,,,0.10,LWC2 V0.39 B123,2013-06-01 02:47:00,
2013-05-31 20:52:00,75.1,73.2,29.60,SE,142,0.0,0.0,94,0.00,,,0.10,LWC2 V0.39 B123,2013-06-01 02:52:00,
2013-05-31 20:57:00,75.0,73.1,29.61,NNE,23,0.0,0.0,94,0.00,,,0.10,LWC2 V0.39 B123,2013-06-01 02:57:00,
2013-05-31 21:02:00,74.9,73.1,29.63,NE,36,2.0,3.0,94,0.00,,,0.10,LWC2 V0.39 B123,2013-06-01 03:02:00,
2013-05-31 21:07:00,74.6,72.4,29.64,ESE,112,0.0,2.0,93,0.00,,,0.10,LWC2 V0.39 B123,2013-06-01 03:07:00,
2013-05-31 21:12:00,74.3,72.1,29.66,North,355,2.0,2.0,93,0.00,,,0.10,LWC2 V0.39 B123,2013-06-01 03:12:00,
2013-05-31 21:17:00,74.0,71.8,29.68,NNE,14,4.0,5.0,93,0.00,,,0.10,LWC2 V0.39 B123,2013-06-01 03:17:00,
2013-05-31 21:22:00,73.7,71.5,29.68,NNE,21,0.0,3.0,93,0.00,,,0.10,LWC2 V0.39 B123,2013-06-01 03:22:00,
2013-05-31 21:27:00,73.3,71.1,29.65,SE,138,3.0,4.0,93,0.00,,,0.10,LWC2 V0.39 B123,2013-06-01 03:27:00,
2013-05-31 21:32:00,72.7,70.6,29.62,SE,130,2.0,10.0,93,0.17,,,0.12,LWC2 V0.39 B123,2013-06-01 03:32:00,
2013-05-31 21:37:00,72.4,70.6,29.63,SE,141,1.0,6.0,94,0.12,,,0.13,LWC2 V0.39 B123,2013-06-01 03:37:00,
2013-05-31 21:42:00,72.4,70.6,29.59,SE,124,5.0,6.0,94,0.06,,,0.13,LWC2 V0.39 B123,2013-06-01 03:42:00,
2013-05-31 21:47:00,72.4,70.9,29.60,NNW,345,0.0,1.0,95,0.04,,,0.13,LWC2 V0.39 B123,2013-06-01 03:47:00,
2013-05-31 21:52:00,72.7,71.2,29.64,NNE,29,2.0,2.0,95,0.00,,,0.13,LWC2 V0.39 B123,2013-06-01 03:52:00,
2013-05-31 21:57:00,72.5,70.7,29.63,NE,47,2.0,3.0,94,0.00,,,0.13,LWC2 V0.39 B123,2013-06-01 03:57:00,
2013-05-31 22:01:00,71.9,69.8,29.64,NNE,20,3.0,4.0,93,0.00,,,0.13,LWC2 V0.39 B123,2013-06-01 04:01:00,
2013-05-31 22:02:00,71.7,69.6,29.64,NNE,20,5.0,8.0,93,0.00,,,0.13,LWC2 V0.39 B123,2013-06-01 04:02:00,
2013-05-31 22:03:00,71.6,69.5,29.65,NNE,12,4.0,8.0,93,0.00,,,0.13,LWC2 V0.39 B123,2013-06-01 04:03:00,
2013-05-31 22:07:00,71.3,69.5,29.67,NNE,29,4.0,10.0,94,0.00,,,0.13,LWC2 V0.39 B123,2013-06-01 04:07:00,
2013-05-31 22:09:00,71.3,69.5,29.66,North,8,9.0,9.0,94,0.00,,,0.13,LWC2 V0.39 B123,2013-06-01 04:09:00,
2013-05-31 22:14:00,71.1,69.3,29.65,East,93,1.0,3.0,94,0.00,,,0.13,LWC2 V0.39 B123,2013-06-01 04:14:00,
2013-05-31 22:19:00,71.0,69.2,29.65,NNE,18,2.0,3.0,94,0.00,,,0.13,LWC2 V0.39 B123,2013-06-01 04:19:00,
2013-05-31 22:24:00,70.7,68.9,29.66,North,8,2.0,3.0,94,0.00,,,0.13,LWC2 V0.39 B123,2013-06-01 04:24:00,
2013-05-31 22:29:00,70.5,68.7,29.67,NE,49,1.0,4.0,94,0.00,,,0.13,LWC2 V0.39 B123,2013-06-01 04:29:00,
2013-05-31 22:34:00,70.2,68.4,29.69,North,11,1.0,2.0,94,0.00,,,0.13,LWC2 V0.39 B123,2013-06-01 04:34:00,
2013-05-31 22:39:00,70.1,68.6,29.69,North,7,1.0,3.0,95,0.00,,,0.14,LWC2 V0.39 B123,2013-06-01 04:39:00,
2013-05-31 22:44:00,70.0,68.5,29.66,ENE,57,0.0,0.0,95,0.00,,,0.14,LWC2 V0.39 B123,2013-06-01 04:44:00,
2013-05-31 22:49:00,69.8,68.3,29.63,SSE,158,4.0,6.0,95,0.00,,,0.14,LWC2 V0.39 B123,2013-06-01 04:49:00,
2013-05-31 22:54:00,69.4,67.9,29.62,ESE,108,5.0,5.0,95,0.00,,,0.14,LWC2 V0.39 B123,2013-06-01 04:54:00,
2013-05-31 22:59:00,69.4,67.9,29.64,NE,53,0.0,1.0,95,0.00,,,0.00,LWC2 V0.39 B123,2013-06-01 04:59:00,
2013-05-31 23:04:00,69.4,67.9,29.65,North,7,4.0,4.0,95,0.00,,,0.00,LWC2 V0.39 B123,2013-06-01 05:04:00,
2013-05-31 23:09:00,69.2,68.0,29.64,ESE,104,2.0,2.0,96,0.00,,,0.00,LWC2 V0.39 B123,2013-06-01 05:09:00,
2013-05-31 23:14:00,69.2,68.0,29.65,NNW,329,0.0,1.0,96,0.00,,,0.00,LWC2 V0.39 B123,2013-06-01 05:14:00,
2013-05-31 23:19:00,69.2,68.0,29.66,ESE,108,0.0,0.0,96,0.00,,,0.00,LWC2 V0.39 B123,2013-06-01 05:19:00,
2013-05-31 23:24:00,69.1,67.9,29.64,SE,125,2.0,2.0,96,0.00,,,0.00,LWC2 V0.39 B123,2013-06-01 05:24:00,
2013-05-31 23:29:00,69.1,67.9,29.65,ESE,109,0.0,1.0,96,0.00,,,0.00,LWC2 V0.39 B123,2013-06-01 05:29:00,
2013-05-31 23:34:00,69.1,67.9,29.65,SE,124,0.0,0.0,96,0.00,,,0.00,LWC2 V0.39 B123,2013-06-01 05:34:00,
2013-05-31 23:39:00,69.1,67.9,29.62,ESE,117,3.0,3.0,96,0.00,,,0.00,LWC2 V0.39 B123,2013-06-01 05:39:00,
2013-05-31 23:44:00,69.1,67.9,29.62,ESE,108,0.0,1.0,96,0.00,,,0.00,LWC2 V0.39 B123,2013-06-01 05:44:00,
2013-05-31 23:49:00,69.1,67.9,29.61,South,184,2.0,4.0,96,0.00,,,0.00,LWC2 V0.39 B123,2013-06-01 05:49:00,
2013-05-31 23:54:00,69.0,67.8,29.63,NE,53,0.0,0.0,96,0.00,,,0.00,LWC2 V0.39 B123,2013-06-01 05:54:00,
2013-05-31 23:59:00,69.1,67.9,29.63,SW,235,2.0,2.0,96,0.00,,,0.00,LWC2 V0.39 B123,2013-06-01 05:59:00,